When you browse on this site, cookies collect data to enhance your experience and personalize the content and advertising you see.
Visit our Privacy Policy to learn more. By continuing to use the site, you agree to this use of cookies and data.
  • In Österreich
  • Länderverzeichnis
  • Für 7 Tage
  • Wassertemperatur
  • Satellitenkarten
  • Wetterkarte
  • News
  • Widgets
  • user-avatar
    Anmelden

    Stündliche Wetter La Palma

    Heute, 14 Dezember, Freitag

    Zeit Temperatur Niederschläge Wind Luftdruck Luftfeuchtigkeit
    00:00 +26°C° 0 mm 1 m/S 758 mmHg 98%
    01:00 +26°C° 0 mm 1 m/S 758 mmHg 98%
    02:00 +26°C° 0 mm 1 m/S 758 mmHg 99%
    03:00 +26°C° 0 mm 1 m/S 758 mmHg 99%
    04:00 +26°C° 0 mm 1 m/S 758 mmHg 99%
    05:00 +27°C° 0 mm 1 m/S 758 mmHg 98%
    06:00 +27°C° 0 mm 1 m/S 758 mmHg 98%
    07:00 +27°C° 0 mm 1 m/S 758 mmHg 97%
    08:00 +28°C° 0.1 mm 1 m/S 759 mmHg 91%
    09:00 +30°C° 0.1 mm 1 m/S 759 mmHg 85%
    10:00 +31°C° 0.1 mm 1 m/S 759 mmHg 78%
    11:00 +32°C° 0.2 mm 1 m/S 759 mmHg 73%
    12:00 +33°C° 0.2 mm 1 m/S 758 mmHg 68%
    13:00 +34°C° 0.2 mm 1 m/S 758 mmHg 63%
    14:00 +34°C° 0.3 mm 1 m/S 757 mmHg 67%
    15:00 +33°C° 0.3 mm 1 m/S 757 mmHg 70%
    16:00 +34°C° 0.3 mm 2 m/S 756 mmHg 74%
    17:00 +31°C° 0.1 mm 1 m/S 757 mmHg 81%
    18:00 +29°C° 0.1 mm 1 m/S 757 mmHg 88%
    19:00 +28°C° 0.1 mm 1 m/S 757 mmHg 95%
    20:00 +27°C° 0.1 mm 1 m/S 758 mmHg 95%
    21:00 +27°C° 0.1 mm 1 m/S 758 mmHg 96%
    22:00 +25°C° 0.1 mm 0 m/S 759 mmHg 97%
    23:00 +27°C° 0.2 mm 1 m/S 759 mmHg 97%

    Morgen, 15 Dezember, Samstag

    Zeit Temperatur Niederschläge Wind Luftdruck Luftfeuchtigkeit
    00:00 +27°C° 0.2 mm 1 m/S 759 mmHg 97%
    01:00 +26°C° 0.2 mm 1 m/S 759 mmHg 97%
    02:00 +26°C° 0.2 mm 1 m/S 758 mmHg 98%
    03:00 +26°C° 0.2 mm 1 m/S 758 mmHg 98%
    04:00 +26°C° 0.2 mm 1 m/S 758 mmHg 98%
    05:00 +26°C° 0.3 mm 1 m/S 758 mmHg 98%
    06:00 +26°C° 0.3 mm 1 m/S 758 mmHg 98%
    07:00 +26°C° 0.3 mm 1 m/S 759 mmHg 98%
    08:00 +28°C° 0.2 mm 1 m/S 759 mmHg 89%
    09:00 +30°C° 0.2 mm 1 m/S 760 mmHg 80%
    10:00 +32°C° 0.2 mm 1 m/S 760 mmHg 72%
    11:00 +33°C° 0 mm 1 m/S 759 mmHg 66%
    12:00 +34°C° 0 mm 1 m/S 759 mmHg 60%
    13:00 +36°C° 0 mm 2 m/S 758 mmHg 55%
    14:00 +35°C° 0.3 mm 2 m/S 757 mmHg 59%
    15:00 +35°C° 0.3 mm 2 m/S 757 mmHg 64%
    16:00 +34°C° 0.3 mm 2 m/S 756 mmHg 69%
    17:00 +31°C° 0.1 mm 2 m/S 757 mmHg 76%
    18:00 +29°C° 0.1 mm 2 m/S 757 mmHg 84%
    19:00 +27°C° 0.1 mm 1 m/S 757 mmHg 92%
    20:00 +27°C° 0 mm 1 m/S 758 mmHg 94%
    21:00 +27°C° 0 mm 1 m/S 759 mmHg 96%
    22:00 +26°C° 0 mm 1 m/S 759 mmHg 98%
    23:00 +26°C° 0 mm 1 m/S 759 mmHg 98%

    übermorgen, 16 Dezember, Sonntag

    Zeit Temperatur Niederschläge Wind Luftdruck Luftfeuchtigkeit
    00:00 +26°C° 0 mm 1 m/S 759 mmHg 98%
    01:00 +26°C° 0 mm 1 m/S 759 mmHg 98%
    02:00 +26°C° 0 mm 1 m/S 758 mmHg 98%
    03:00 +26°C° 0 mm 1 m/S 758 mmHg 98%
    04:00 +27°C° 0 mm 1 m/S 758 mmHg 97%
    05:00 +27°C° 0 mm 1 m/S 758 mmHg 97%
    06:00 +27°C° 0 mm 1 m/S 758 mmHg 97%
    07:00 +27°C° 0 mm 1 m/S 759 mmHg 97%
    08:00 +28°C° 0.6 mm 1 m/S 759 mmHg 90%
    09:00 +30°C° 0.6 mm 2 m/S 759 mmHg 82%
    10:00 +31°C° 0.6 mm 2 m/S 760 mmHg 75%
    11:00 +32°C° 0.1 mm 2 m/S 759 mmHg 71%
    12:00 +34°C° 0.1 mm 2 m/S 758 mmHg 67%
    13:00 +35°C° 0.1 mm 2 m/S 758 mmHg 63%
    14:00 +34°C° 0.3 mm 2 m/S 757 mmHg 66%
    15:00 +34°C° 0.3 mm 2 m/S 756 mmHg 70%
    16:00 +32°C° 0.3 mm 2 m/S 756 mmHg 74%
    17:00 +31°C° 0.1 mm 2 m/S 756 mmHg 80%
    18:00 +29°C° 0.1 mm 2 m/S 757 mmHg 86%
    19:00 +27°C° 0.1 mm 2 m/S 757 mmHg 93%
    20:00 +27°C° 0 mm 2 m/S 758 mmHg 94%
    21:00 +27°C° 0 mm 2 m/S 758 mmHg 95%
    22:00 +27°C° 0 mm 2 m/S 759 mmHg 97%
    23:00 +27°C° 0 mm 2 m/S 759 mmHg 97%

    17 Dezember, Montag

    Zeit Temperatur Niederschläge Wind Luftdruck Luftfeuchtigkeit
    00:00 +26°C° 0 mm 2 m/S 758 mmHg 97%
    01:00 +26°C° 0 mm 2 m/S 758 mmHg 97%
    02:00 +26°C° 0 mm 2 m/S 758 mmHg 97%
    03:00 +26°C° 0 mm 2 m/S 757 mmHg 97%
    04:00 +26°C° 0 mm 1 m/S 757 mmHg 98%
    05:00 +26°C° 0.1 mm 1 m/S 758 mmHg 97%
    06:00 +26°C° 0.1 mm 1 m/S 758 mmHg 97%
    07:00 +26°C° 0.1 mm 1 m/S 758 mmHg 97%
    08:00 +27°C° 0.4 mm 1 m/S 759 mmHg 92%
    09:00 +29°C° 0.4 mm 2 m/S 759 mmHg 87%
    10:00 +30°C° 0.4 mm 2 m/S 759 mmHg 82%
    11:00 +30°C° 0.8 mm 2 m/S 759 mmHg 83%
    12:00 +30°C° 0.8 mm 2 m/S 758 mmHg 83%
    13:00 +31°C° 0.8 mm 2 m/S 758 mmHg 83%
    14:00 +30°C° 0.9 mm 2 m/S 757 mmHg 84%
    15:00 +30°C° 0.9 mm 1 m/S 757 mmHg 85%
    16:00 +30°C° 0.9 mm 1 m/S 756 mmHg 85%
    17:00 +29°C° 0.4 mm 1 m/S 756 mmHg 89%
    18:00 +28°C° 0.4 mm 1 m/S 757 mmHg 92%
    19:00 +27°C° 0.4 mm 1 m/S 757 mmHg 95%
    20:00 +27°C° 0.4 mm 1 m/S 758 mmHg 96%
    21:00 +26°C° 0.4 mm 1 m/S 758 mmHg 97%
    22:00 +26°C° 0.4 mm 1 m/S 759 mmHg 98%
    23:00 +26°C° 0.6 mm 1 m/S 758 mmHg 98%

    18 Dezember, Dienstag

    Zeit Temperatur Niederschläge Wind Luftdruck Luftfeuchtigkeit
    00:00 +26°C° 0.6 mm 1 m/S 758 mmHg 98%
    01:00 +26°C° 0.6 mm 1 m/S 758 mmHg 98%
    02:00 +26°C° 0.4 mm 1 m/S 758 mmHg 99%
    03:00 +26°C° 0.4 mm 1 m/S 757 mmHg 99%
    04:00 +26°C° 0.4 mm 1 m/S 757 mmHg 99%
    05:00 +26°C° 0.2 mm 1 m/S 757 mmHg 99%
    06:00 +26°C° 0.2 mm 1 m/S 758 mmHg 98%
    07:00 +26°C° 0.2 mm 1 m/S 758 mmHg 98%
    08:00 +27°C° 0.3 mm 1 m/S 759 mmHg 92%
    09:00 +29°C° 0.3 mm 1 m/S 759 mmHg 86%
    10:00 +30°C° 0.3 mm 1 m/S 759 mmHg 80%
    11:00 +31°C° 0.8 mm 1 m/S 758 mmHg 80%
    12:00 +31°C° 0.8 mm 1 m/S 758 mmHg 80%
    13:00 +31°C° 0.8 mm 2 m/S 757 mmHg 80%
    14:00 +31°C° 1.5 mm 1 m/S 756 mmHg 82%
    15:00 +31°C° 1.5 mm 1 m/S 756 mmHg 84%
    16:00 +30°C° 1.5 mm 1 m/S 756 mmHg 86%
    17:00 +29°C° 0.4 mm 1 m/S 756 mmHg 89%
    18:00 +28°C° 0.4 mm 1 m/S 757 mmHg 92%
    19:00 +25°C° 0.4 mm 0 m/S 757 mmHg 95%
    20:00 +25°C° 0.5 mm 0 m/S 758 mmHg 96%
    21:00 +26°C° 0.5 mm 1 m/S 758 mmHg 97%
    22:00 +26°C° 0.5 mm 1 m/S 759 mmHg 98%
    23:00 +26°C° 0.4 mm 1 m/S 758 mmHg 98%

    19 Dezember, Mittwoch

    Zeit Temperatur Niederschläge Wind Luftdruck Luftfeuchtigkeit
    00:00 +26°C° 0.4 mm 1 m/S 758 mmHg 98%
    01:00 +26°C° 0.4 mm 1 m/S 758 mmHg 99%
    02:00 +26°C° 1 mm 1 m/S 757 mmHg 99%
    03:00 +26°C° 1 mm 1 m/S 757 mmHg 99%
    04:00 +26°C° 1 mm 1 m/S 757 mmHg 99%
    05:00 +26°C° 0.9 mm 1 m/S 757 mmHg 98%
    06:00 +26°C° 0.9 mm 1 m/S 758 mmHg 98%
    07:00 +26°C° 0.9 mm 1 m/S 758 mmHg 98%
    08:00 +27°C° 0.2 mm 1 m/S 759 mmHg 93%
    09:00 +29°C° 0.2 mm 1 m/S 759 mmHg 87%
    10:00 +30°C° 0.2 mm 2 m/S 759 mmHg 82%
    11:00 +31°C° 0.6 mm 1 m/S 758 mmHg 81%
    12:00 +31°C° 0.6 mm 1 m/S 758 mmHg 80%
    13:00 +32°C° 0.6 mm 1 m/S 757 mmHg 78%
    14:00 +31°C° 0.6 mm 1 m/S 757 mmHg 80%
    15:00 +31°C° 0.6 mm 1 m/S 756 mmHg 82%
    16:00 +31°C° 0.6 mm 2 m/S 756 mmHg 84%
    17:00 +29°C° 0.7 mm 1 m/S 756 mmHg 87%
    18:00 +28°C° 0.7 mm 1 m/S 757 mmHg 91%
    19:00 +27°C° 0.7 mm 1 m/S 757 mmHg 95%
    20:00 +26°C° 0.2 mm 1 m/S 757 mmHg 96%
    21:00 +26°C° 0.2 mm 1 m/S 758 mmHg 97%
    22:00 +26°C° 0.2 mm 1 m/S 758 mmHg 98%
    23:00 +26°C° 0.2 mm 1 m/S 758 mmHg 98%
    Mehr zeigen